Terminal Aerodrome Forecast
Issued by NWS

Home | Current Version | Previous Version | Text Only | Print | Product List | Glossary On
Versions: 1 2 3 4 5 6 7 8 9 10 11 12 13 14 15 16 17 18 19 20 21 22 23 24 25 26 27 28 29 30 31 32 33 34 35 36 37 38
000
FTUS46 KPQR 011733
TAFONP
TAF
KONP 011733Z 0118/0218 09007KT P6SM -RA SCT006 BKN020 OVC030
     FM012000 19010G20KT 4SM -SHRA BR BKN008 OVC015
     FM020300 17007KT 5SM BR SCT008 BKN015
     FM020600 12003KT 2SM BR OVC007=

USA.gov is the U.S. government's official web portal to all federal, state and local government web resources and services.